Weather in Lopyuvad

Russia / Komi Republic     61°44′47″N   55°11′39″E
temp.,
°C
wind,
m/s
gust,
m/s
humid.,
%
clouds,
%
prec.,
mm/h
press.,
hPa
HPBL,
m
27 september, mon
mon2700:00+4e41173100 0.0 1025601
03:00+3e41073100 0.0 1026507
06:00+3e41071100 0.0 1028493
09:00+5ese496096 0.0 1029645
12:00+7ese464966 0.0 1030997
15:00+8ese36528 0.0 10311082
18:00+2ese22775 0.0 103241
21:00+1e1181100 0.0 103312
28 september, tue
tue2800:00+2ne117797 0.0 103312
03:000sse118771 0.0 103310
06:000nnw008597 0.0 103314
09:00+4nw126783 0.0 1032366
12:00+7nnw235796 0.0 1031815
15:00+7nnw235891 0.0 1030845
18:00+3nnw227667 0.0 103025
21:00+3nnw138598 0.0 103087
29 september, wed
wed2900:00+4n1192100 0.0 103052
03:00+4nnw1194100 0.0 103060
06:00+4n1294100 0.0 103098
09:00+5nw1292100 0.1 1031196
12:00+6nw1287100 0.1 1031437
15:00+7nw1378100 0.1 1030646
18:00+5wnw228896 0.0 103051
21:00+3wnw229583 0.0 103039
30 september, thu
thu3000:00+3w249673 0.0 103085
03:00+3wsw279288 0.0 1029205
06:00+4wsw2890100 0.0 1027274
09:00+7w378199 0.0 1026409
12:00+10wnw3573100 0.0 1025867
15:00+9nnw2681100 0.0 1025265
18:00+7nnw2789100 0.0 1025410
21:00+6nnw2690100 0.0 1026330
1 october, fri
fri100:00+6nw2593100 0.0 1026225
03:00+6nw2694100 0.0 1026257
06:00+6nw2696100 0.1 1026309
09:00+7nw2591100 0.1 1026412
12:00+8nnw2485100 0.0 1026532
15:00+7nw2586100 0.0 1027465
18:00+6wnw2492100 0.0 1027170
21:00+6w2593100 0.0 1027184